[[{"header":{"parameterUnit":"m.s-1","parameterCategory":2,"la1":30.2991,"la2":30.254,"lo1":-89.0895,"lo2":-89.0444,"dy":0.0017,"dx":0.0017,"nx":28,"ny":28,"refTime":"2024-08-15T09:00:00:Z","depth":"0","parameterNumber":2,"parameterNumberName":"U-component_of_CURRENTS"},"data":[0,0,0,0,0,0,0,0,0,0,0,0,0,0,0,0,0,0,0,0,0,0,0,0,0,0,0,0,0,0,0,0,0,0,0,0,0,0,0,0,0,0,0,0,0,0,0,0,0,0,0,0,0,0,0,0,0,0,-0.1374,-0.1374,0,-0.1338,-0.1337,-0.1337,-0.1286,-0.1285,-0.1285,-0.1284,-0.1162,-0.1159,-0.1157,0,0,0,0,0,0,0,0,0,0,0,0,0,-0.1314,-0.1316,-0.1374,-0.1374,-0.1374,-0.1338,-0.1337,-0.1337,-0.1286,-0.1285,-0.1284,-0.1284,-0.1163,-0.116,-0.1157,0,0,0,0,0,0,0,0,0,0,0,0,0,-0.1314,-0.1317,-0.1374,-0.1345,-0.1342,-0.1338,-0.1337,-0.1337,-0.1286,-0.1285,-0.1284,-0.1283,-0.1164,-0.116,-0.1156,-0.1154,0,0,-0.1144,-0.1143,0,0,0,0,0,0,0,0,-0.1314,-0.1316,-0.135,-0.1347,-0.1344,-0.1317,-0.1272,-0.1272,-0.1287,-0.1306,-0.1284,-0.1283,-0.1208,-0.12,-0.1195,-0.1148,-0.1143,-0.1144,-0.1142,-0.114,-0.1139,0,0,0,0,0,0,0,-0.1314,-0.1317,-0.1358,-0.135,-0.1346,-0.1305,-0.1304,-0.1271,-0.126,-0.1304,-0.1301,-0.13,-0.1205,-0.1199,-0.1191,-0.1141,-0.1144,-0.1141,-0.1138,-0.1137,-0.1075,-0.1076,0,0,0,0,0,0,-0.1329,-0.1318,-0.1359,-0.1357,-0.1328,-0.1307,-0.1307,-0.1325,-0.1262,-0.1253,-0.1301,-0.1298,-0.1206,-0.1196,-0.1186,-0.1151,-0.114,-0.1136,-0.1134,-0.1074,-0.1075,-0.1076,0,0,0,0,0,0,-0.1328,-0.1333,-0.1361,-0.1336,-0.1337,-0.131,-0.1331,-0.1325,-0.1326,-0.1261,-0.1249,-0.1308,-0.1204,-0.1192,-0.115,-0.1147,-0.1135,-0.1131,-0.1074,-0.1075,-0.1076,-0.1099,0,0,0,0,0,0,-0.1327,-0.1334,-0.1349,-0.1338,-0.1339,-0.1365,-0.1332,-0.1325,-0.1327,-0.1323,-0.1264,-0.1251,-0.1203,-0.1156,-0.1146,-0.1142,-0.1128,-0.1073,-0.1074,-0.1075,-0.1097,-0.1101,-0.1103,0,0,0,0,0,-0.1325,-0.1341,-0.1351,-0.1355,-0.1363,-0.1366,-0.1363,-0.1337,-0.1329,-0.1333,-0.1283,-0.1253,-0.1157,-0.1153,-0.1141,-0.1136,-0.1072,-0.1074,-0.1075,-0.1096,-0.11,-0.1103,0,0,0,0,0,0,-0.1321,-0.1337,-0.1348,-0.137,-0.1376,-0.1358,-0.1348,-0.1352,-0.132,-0.1302,-0.1253,-0.1236,-0.12,-0.1174,-0.1171,-0.1126,-0.1114,-0.1113,-0.1134,-0.1137,-0.114,-0.1178,-0.1125,0,0,0,0,0,-0.1334,-0.1349,-0.1363,-0.1381,-0.1381,-0.1375,-0.1373,-0.1363,-0.1336,-0.1323,-0.1285,-0.1241,-0.1199,-0.1173,-0.1134,-0.1108,-0.1119,-0.1103,-0.1106,-0.1108,-0.1134,-0.1174,-0.1184,-0.1081,-0.1081,-0.1081,0,0,-0.1338,-0.1347,-0.1358,-0.1381,-0.1373,-0.1378,-0.1369,-0.1364,-0.1368,-0.1312,-0.1289,-0.1248,-0.1197,-0.1158,-0.1141,-0.1133,-0.1135,-0.111,-0.1112,-0.1137,-0.1177,-0.1187,-0.1196,-0.1082,-0.1082,-0.1082,0,0,-0.1338,-0.1362,-0.1369,-0.1375,-0.1375,-0.1377,-0.1386,-0.1379,-0.1372,-0.1352,-0.1311,-0.129,-0.1219,-0.1196,-0.117,-0.1179,-0.1153,-0.1149,-0.1187,-0.1225,-0.1234,-0.1243,-0.1234,-0.1242,-0.1148,-0.1148,-0.1148,0,-0.1337,-0.1362,-0.137,-0.1371,-0.1376,-0.1384,-0.1391,-0.1388,-0.1371,-0.1366,-0.1344,-0.1287,-0.1248,-0.1223,-0.1214,-0.1189,-0.1183,-0.1169,-0.1231,-0.1239,-0.1248,-0.1237,-0.1245,-0.1149,-0.1149,-0.1149,-0.1149,0,-0.1338,-0.1359,-0.1356,-0.1371,-0.138,-0.1383,-0.1391,-0.1396,-0.1391,-0.1385,-0.1369,-0.1331,-0.13,-0.1282,-0.1239,-0.1268,-0.1232,-0.1231,-0.1222,-0.126,-0.1245,-0.1253,-0.1151,-0.1151,-0.115,-0.115,0,0,-0.1333,-0.1356,-0.1356,-0.1364,-0.1381,-0.1385,-0.1397,-0.1412,-0.1418,-0.1407,-0.142,-0.1373,-0.1363,-0.134,-0.1303,-0.1336,-0.1371,-0.13,-0.1302,-0.1294,-0.1413,-0.1395,-0.1402,-0.1369,-0.1371,-0.1373,-0.1366,0,-0.1331,-0.1342,-0.1358,-0.1372,-0.138,-0.1395,-0.1411,-0.1421,-0.1421,-0.1431,-0.1426,-0.141,-0.138,-0.136,-0.1391,-0.1372,-0.1399,-0.1371,-0.1378,-0.1378,-0.1361,-0.1415,-0.1329,-0.1318,-0.1374,-0.1375,-0.1376,0,-0.1327,-0.1339,-0.1355,-0.1381,-0.1385,-0.1395,-0.1422,-0.1433,-0.1452,-0.1453,-0.1457,-0.1441,-0.1462,-0.1449,-0.1474,-0.1446,-0.1439,-0.1442,-0.1441,-0.1434,-0.1379,-0.1298,-0.133,-0.1231,-0.1388,-0.1387,-0.1386,0,-0.1312,-0.1335,-0.1352,-0.1358,-0.1389,-0.1397,-0.1411,-0.1432,-0.1442,-0.1467,-0.1475,-0.1492,-0.1494,-0.152,-0.1489,-0.1484,-0.1522,-0.1518,-0.1501,-0.1497,-0.1436,-0.1424,-0.1385,-0.1576,-0.1576,-0.1576,-0.1576,0,-0.1305,-0.1312,-0.1344,-0.1346,-0.1358,-0.1385,-0.1395,-0.1414,-0.145,-0.1457,-0.1478,-0.1487,-0.1516,-0.1517,-0.1511,-0.1515,-0.1536,-0.1532,-0.1516,-0.1436,-0.1425,-0.1345,-0.1375,-0.1575,-0.1575,-0.1576,-0.1576,0,-0.1276,-0.1302,-0.1312,-0.1343,-0.1347,-0.1348,-0.1372,-0.1383,-0.1426,-0.1444,-0.1454,-0.1486,-0.1484,-0.1489,-0.1514,-0.1532,-0.152,-0.1539,-0.1418,-0.1392,-0.1325,-0.1361,-0.1457,-0.1412,-0.1556,-0.1556,-0.1556,0,-0.126,-0.1267,-0.1289,-0.1284,-0.1291,-0.1299,-0.1307,-0.1356,-0.1371,-0.1428,-0.1436,-0.145,-0.1431,-0.1456,-0.1487,-0.1493,-0.1468,-0.1441,-0.1459,-0.1332,-0.136,-0.1414,-0.1372,-0.1358,-0.1356,-0.1355,-0.1354,0,-0.1217,-0.1228,-0.123,-0.1228,-0.1228,-0.1234,-0.1249,-0.1266,-0.1327,-0.1354,-0.1371,-0.1367,-0.1392,-0.137,-0.1397,-0.1396,-0.1404,-0.1417,-0.1326,-0.1261,-0.1282,-0.1222,-0.1313,-0.1341,-0.1343,-0.1343,-0.1344,-0.1345,-0.1165,-0.1152,-0.1154,-0.1143,-0.1155,-0.1158,-0.1134,-0.117,-0.1189,-0.1195,-0.1263,-0.1234,-0.1257,-0.1291,-0.1251,-0.1185,-0.1344,-0.1184,-0.125,-0.132,-0.1268,-0.1326,-0.1321,-0.1322,-0.1323,-0.1324,-0.1325,0,-0.1066,-0.1062,-0.1063,-0.105,-0.1046,-0.1074,-0.1083,-0.1051,-0.1037,-0.1057,-0.1054,-0.1085,-0.1047,-0.1021,-0.1047,-0.1025,-0.0992,-0.0995,-0.1008,-0.098,-0.1028,-0.1001,-0.0878,-0.0878,-0.0878,-0.0878,-0.0878,-0.0878,-0.1004,-0.0961,-0.0968,-0.0931,-0.0938,-0.0898,-0.0883,-0.0852,-0.0843,-0.0799,-0.081,-0.0823,-0.0853,-0.1039,-0.0923,-0.0854,-0.081,-0.0871,-0.0885,-0.0842,-0.0861,-0.088,-0.0852,-0.07,-0.07,-0.0738,-0.0738,-0.0739]},{"header":{"parameterUnit":"m.s-1","parameterCategory":2,"la1":30.2991,"la2":30.254,"lo1":-89.0895,"lo2":-89.0444,"dy":0.0017,"dx":0.0017,"nx":28,"ny":28,"refTime":"2024-08-15T09:00:00:Z","depth":"0","parameterNumber":3,"parameterNumberName":"V-component_of_CURRENTS"},"data":[0,0,0,0,0,0,0,0,0,0,0,0,0,0,0,0,0,0,0,0,0,0,0,0,0,0,0,0,0,0,0,0,0,0,0,0,0,0,0,0,0,0,0,0,0,0,0,0,0,0,0,0,0,0,0,0,0,0,-0.0683,-0.0682,0,-0.0553,-0.0551,-0.0549,-0.0463,-0.0463,-0.0463,-0.0463,-0.0313,-0.0309,-0.0305,0,0,0,0,0,0,0,0,0,0,0,0,0,-0.0694,-0.0695,-0.0683,-0.0682,-0.0681,-0.0553,-0.0551,-0.0548,-0.0463,-0.0463,-0.0463,-0.0463,-0.0314,-0.0309,-0.0304,0,0,0,0,0,0,0,0,0,0,0,0,0,-0.0632,-0.0695,-0.0683,-0.0629,-0.0623,-0.0554,-0.0551,-0.0547,-0.0463,-0.0463,-0.0463,-0.0463,-0.0316,-0.031,-0.0303,-0.0261,0,0,-0.0285,-0.0282,0,0,0,0,0,0,0,0,-0.0636,-0.0631,-0.0638,-0.0633,-0.0626,-0.0531,-0.05,-0.0453,-0.0463,-0.0516,-0.0463,-0.0464,-0.0389,-0.0376,-0.0341,-0.0254,-0.0248,-0.0284,-0.028,-0.0278,-0.0276,0,0,0,0,0,0,0,-0.0641,-0.0635,-0.0624,-0.0637,-0.063,-0.0555,-0.0548,-0.0489,-0.0446,-0.0511,-0.0506,-0.0504,-0.0384,-0.0347,-0.0337,-0.0245,-0.0284,-0.0279,-0.0275,-0.0272,-0.0174,-0.0175,0,0,0,0,0,0,-0.0681,-0.0641,-0.0628,-0.0621,-0.064,-0.0556,-0.0547,-0.0555,-0.0447,-0.0433,-0.0504,-0.0501,-0.0358,-0.0344,-0.0331,-0.0309,-0.0278,-0.0272,-0.0268,-0.0173,-0.0174,-0.0175,0,0,0,0,0,0,-0.0682,-0.0681,-0.0633,-0.0632,-0.0622,-0.0558,-0.0566,-0.0553,-0.0511,-0.0444,-0.0428,-0.0478,-0.0357,-0.034,-0.0287,-0.0301,-0.0269,-0.0263,-0.0172,-0.0173,-0.0175,-0.0243,0,0,0,0,0,0,-0.0683,-0.0683,-0.0689,-0.0636,-0.0624,-0.0589,-0.0566,-0.055,-0.0514,-0.0508,-0.0416,-0.0402,-0.0356,-0.0297,-0.0281,-0.0292,-0.0258,-0.017,-0.0172,-0.0174,-0.0239,-0.0246,-0.0253,0,0,0,0,0,-0.0684,-0.069,-0.069,-0.0688,-0.064,-0.059,-0.0575,-0.0524,-0.0513,-0.0487,-0.0441,-0.0405,-0.03,-0.0292,-0.0273,-0.0283,-0.0169,-0.0172,-0.0174,-0.0236,-0.0245,-0.0253,0,0,0,0,0,0,-0.069,-0.0681,-0.068,-0.0683,-0.0644,-0.0578,-0.0556,-0.0525,-0.0464,-0.0464,-0.0398,-0.0381,-0.0344,-0.0306,-0.0299,-0.0266,-0.0236,-0.0235,-0.029,-0.0298,-0.0304,-0.0341,-0.0253,0,0,0,0,0,-0.0703,-0.0707,-0.068,-0.0678,-0.0669,-0.0614,-0.0586,-0.0555,-0.0504,-0.0477,-0.0416,-0.0371,-0.0339,-0.0313,-0.0267,-0.0234,-0.0241,-0.0237,-0.0244,-0.025,-0.027,-0.0282,-0.0292,-0.0184,-0.0184,-0.0183,0,0,-0.0702,-0.0701,-0.07,-0.068,-0.065,-0.063,-0.0594,-0.056,-0.0543,-0.0471,-0.0422,-0.0381,-0.0335,-0.0306,-0.0288,-0.0275,-0.0291,-0.0253,-0.0258,-0.0275,-0.0286,-0.0296,-0.0306,-0.0185,-0.0185,-0.0185,0,0,-0.0706,-0.071,-0.0716,-0.0694,-0.0667,-0.0634,-0.0631,-0.057,-0.0545,-0.0497,-0.0462,-0.0442,-0.0354,-0.0346,-0.033,-0.035,-0.0324,-0.0327,-0.0387,-0.0398,-0.0408,-0.0416,-0.0468,-0.048,-0.0334,-0.0334,-0.0334,0,-0.0711,-0.0721,-0.0702,-0.0703,-0.0692,-0.0645,-0.0641,-0.0605,-0.0531,-0.0526,-0.0494,-0.043,-0.0387,-0.0393,-0.0403,-0.0367,-0.0374,-0.0356,-0.0408,-0.0416,-0.0423,-0.0475,-0.0487,-0.0338,-0.0337,-0.0337,-0.0336,0,-0.0719,-0.0725,-0.0725,-0.0723,-0.0702,-0.0686,-0.0658,-0.0633,-0.0602,-0.0571,-0.0556,-0.0507,-0.0479,-0.0466,-0.0434,-0.0469,-0.0461,-0.0413,-0.0389,-0.0439,-0.049,-0.0502,-0.0343,-0.0341,-0.034,-0.0339,0,0,-0.0741,-0.0736,-0.0737,-0.0744,-0.0717,-0.0701,-0.0696,-0.0679,-0.0687,-0.0632,-0.0649,-0.0608,-0.0588,-0.0573,-0.054,-0.0554,-0.0618,-0.0507,-0.0505,-0.0564,-0.067,-0.069,-0.0705,-0.0563,-0.0564,-0.0566,-0.0697,0,-0.0755,-0.0772,-0.076,-0.0762,-0.0767,-0.0743,-0.0743,-0.0727,-0.0702,-0.0699,-0.0691,-0.0676,-0.0627,-0.0621,-0.0631,-0.0599,-0.0646,-0.0589,-0.061,-0.0612,-0.0626,-0.0718,-0.057,-0.0675,-0.0708,-0.071,-0.0712,0,-0.0775,-0.0784,-0.0799,-0.0805,-0.0808,-0.08,-0.0811,-0.0801,-0.0803,-0.0789,-0.079,-0.0761,-0.0781,-0.0731,-0.0749,-0.0704,-0.0713,-0.0703,-0.0706,-0.071,-0.0653,-0.0624,-0.0695,-0.0338,-0.073,-0.0728,-0.0727,0,-0.0809,-0.0813,-0.083,-0.0829,-0.0825,-0.0837,-0.0834,-0.0832,-0.0842,-0.085,-0.0861,-0.0859,-0.0863,-0.0858,-0.0837,-0.0787,-0.0873,-0.0796,-0.0848,-0.085,-0.0726,-0.0714,-0.0457,-0.0862,-0.0861,-0.0861,-0.0861,0,-0.0837,-0.0847,-0.0849,-0.0858,-0.0884,-0.0872,-0.0904,-0.0898,-0.0915,-0.0942,-0.0911,-0.0941,-0.0887,-0.0915,-0.0893,-0.0923,-0.0924,-0.0901,-0.0892,-0.075,-0.0739,-0.0423,-0.0276,-0.0866,-0.0865,-0.0864,-0.0863,0,-0.0859,-0.0865,-0.088,-0.089,-0.0901,-0.0916,-0.0944,-0.0969,-0.0971,-0.1013,-0.1022,-0.1013,-0.1047,-0.1038,-0.1047,-0.1004,-0.0866,-0.1049,-0.0914,-0.0888,-0.0575,-0.0443,-0.0397,-0.026,-0.1115,-0.1117,-0.1118,0,-0.0867,-0.088,-0.0904,-0.0924,-0.0926,-0.0956,-0.0988,-0.0998,-0.1026,-0.1061,-0.1092,-0.1135,-0.1193,-0.1232,-0.1163,-0.1183,-0.0941,-0.1033,-0.0917,-0.0572,-0.0416,-0.0386,-0.0268,-0.0789,-0.0788,-0.0786,-0.0785,0,-0.0869,-0.0878,-0.089,-0.094,-0.0973,-0.1015,-0.1057,-0.1093,-0.1116,-0.1163,-0.1226,-0.1281,-0.1312,-0.1263,-0.1265,-0.1197,-0.0741,-0.101,-0.0649,-0.0163,-0.0116,0.0029,-0.0714,-0.0773,-0.0774,-0.0775,-0.0776,-0.0776,-0.0855,-0.0868,-0.0897,-0.0943,-0.0988,-0.1051,-0.1089,-0.1155,-0.1221,-0.1306,-0.1346,-0.1463,-0.1249,-0.1233,-0.1126,-0.061,-0.074,-0.0389,-0.0275,-0.0294,-0.0088,-0.0853,-0.0895,-0.0897,-0.0899,-0.09,-0.0901,0,-0.0833,-0.0861,-0.0903,-0.0957,-0.101,-0.1037,-0.1116,-0.1162,-0.1253,-0.1408,-0.1504,-0.1391,-0.112,-0.0802,-0.0176,0.0145,0.024,0.0373,0.0579,0.0649,0.0014,0.0119,0.0295,0.0294,0.0294,0.0294,0.0293,0.0293,-0.0818,-0.0854,-0.0888,-0.0962,-0.1003,-0.1065,-0.1106,-0.1188,-0.1303,-0.1412,-0.1464,-0.1553,-0.0786,0.0276,0.1035,0.1097,0.142,0.1312,0.1418,0.1191,0.1135,0.1081,0.1224,0.1629,0.163,0.2094,0.2099,0.2104]}],[{"header":{"parameterUnit":"m.s-1","parameterCategory":2,"la1":30.2991,"la2":30.254,"lo1":-89.0895,"lo2":-89.0444,"dy":0.0017,"dx":0.0017,"nx":28,"ny":28,"refTime":"2024-08-15T09:00:00:Z","depth":"2","parameterNumber":2,"parameterNumberName":"U-component_of_CURRENTS"},"data":[0,0,0,0,0,0,0,0,0,0,0,0,0,0,0,0,0,0,0,0,0,0,0,0,0,0,0,0,0,0,0,0,0,0,0,0,0,0,0,0,0,0,0,0,0,0,0,0,0,0,0,0,0,0,0,0,0,0,-0.3033,-0.3034,0,-0.3098,-0.3098,-0.3098,-0.3047,-0.3045,-0.3043,-0.3042,-0.2873,-0.287,-0.2868,0,0,0,0,0,0,0,0,0,0,0,0,0,-0.2828,-0.2832,-0.3033,-0.3034,-0.3035,-0.3098,-0.3098,-0.3098,-0.3047,-0.3045,-0.3043,-0.3041,-0.2874,-0.2871,-0.2867,0,0,0,0,0,0,0,0,0,0,0,0,0,-0.2902,-0.2833,-0.3032,-0.3021,-0.3021,-0.3098,-0.3098,-0.3098,-0.3048,-0.3045,-0.3043,-0.304,-0.2875,-0.2871,-0.2867,-0.2891,0,0,-0.2854,-0.2852,0,0,0,0,0,0,0,0,-0.2898,-0.2909,-0.3022,-0.3022,-0.3022,-0.3066,-0.2965,-0.3019,-0.3048,-0.3032,-0.3042,-0.3039,-0.2922,-0.2913,-0.2927,-0.2883,-0.2876,-0.2853,-0.285,-0.2849,-0.2847,0,0,0,0,0,0,0,-0.2893,-0.2906,-0.3053,-0.3023,-0.3024,-0.3001,-0.3008,-0.2975,-0.2982,-0.3033,-0.3031,-0.3048,-0.2919,-0.2931,-0.2922,-0.2873,-0.2853,-0.2849,-0.2847,-0.2845,-0.2772,-0.2772,0,0,0,0,0,0,-0.2902,-0.2902,-0.3051,-0.3055,-0.2959,-0.3007,-0.3015,-0.305,-0.2987,-0.2979,-0.305,-0.3045,-0.294,-0.2927,-0.2915,-0.285,-0.2849,-0.2845,-0.2842,-0.2771,-0.2772,-0.2773,0,0,0,0,0,0,-0.2898,-0.2916,-0.3048,-0.2982,-0.2998,-0.3014,-0.3054,-0.3053,-0.3034,-0.3003,-0.2988,-0.3028,-0.2938,-0.2921,-0.2862,-0.2846,-0.2843,-0.2839,-0.277,-0.2771,-0.2772,-0.2776,0,0,0,0,0,0,-0.2892,-0.2914,-0.292,-0.2984,-0.3003,-0.3066,-0.3057,-0.3056,-0.3053,-0.3046,-0.298,-0.2964,-0.2934,-0.2869,-0.2857,-0.284,-0.2835,-0.2769,-0.2771,-0.2772,-0.2775,-0.2777,-0.2779,0,0,0,0,0,-0.2885,-0.2913,-0.2921,-0.2938,-0.3019,-0.3066,-0.3072,-0.307,-0.3054,-0.3043,-0.3002,-0.2965,-0.2869,-0.2865,-0.2852,-0.2833,-0.2769,-0.277,-0.2772,-0.2774,-0.2777,-0.2779,0,0,0,0,0,0,-0.2819,-0.2914,-0.2922,-0.2975,-0.3004,-0.3059,-0.3051,-0.3061,-0.3028,-0.3,-0.2965,-0.2947,-0.2886,-0.2871,-0.2869,-0.2822,-0.2817,-0.2816,-0.2823,-0.2825,-0.2827,-0.2823,-0.2832,0,0,0,0,0,-0.2815,-0.2854,-0.2931,-0.2957,-0.2975,-0.3008,-0.302,-0.3024,-0.3021,-0.3004,-0.2963,-0.2924,-0.2894,-0.2865,-0.2828,-0.2802,-0.2775,-0.2787,-0.2789,-0.279,-0.2782,-0.2757,-0.2755,-0.2778,-0.2778,-0.2778,0,0,-0.2789,-0.2849,-0.2865,-0.2944,-0.2962,-0.2983,-0.3005,-0.3016,-0.3014,-0.2988,-0.2938,-0.2912,-0.2886,-0.2851,-0.2825,-0.2828,-0.2767,-0.2792,-0.2793,-0.2784,-0.2758,-0.2755,-0.2753,-0.2779,-0.2778,-0.2778,0,0,-0.2761,-0.2815,-0.2832,-0.2864,-0.2906,-0.294,-0.2939,-0.2977,-0.2966,-0.2942,-0.2923,-0.2895,-0.284,-0.2834,-0.2824,-0.282,-0.277,-0.2806,-0.2813,-0.2789,-0.2786,-0.2783,-0.2728,-0.2721,-0.2817,-0.2817,-0.2817,0,-0.2717,-0.2767,-0.2834,-0.2857,-0.2872,-0.2917,-0.2919,-0.2937,-0.2939,-0.2932,-0.2909,-0.2863,-0.2837,-0.2824,-0.2828,-0.2819,-0.2786,-0.2802,-0.2789,-0.2786,-0.2783,-0.2727,-0.2719,-0.2817,-0.2817,-0.2817,-0.2817,0,-0.2708,-0.2733,-0.2741,-0.2791,-0.2816,-0.2824,-0.2874,-0.2872,-0.2866,-0.2883,-0.2847,-0.2833,-0.2812,-0.2811,-0.2813,-0.2796,-0.277,-0.2784,-0.2778,-0.278,-0.2722,-0.2713,-0.2818,-0.2818,-0.2817,-0.2817,0,0,-0.2628,-0.2719,-0.2709,-0.2721,-0.278,-0.2802,-0.2808,-0.2837,-0.2838,-0.2826,-0.2815,-0.2797,-0.28,-0.2792,-0.2799,-0.2792,-0.2746,-0.2782,-0.278,-0.2716,-0.2658,-0.2581,-0.2563,-0.2752,-0.2751,-0.275,-0.2618,0,-0.258,-0.2612,-0.267,-0.2665,-0.2682,-0.2736,-0.2749,-0.2776,-0.279,-0.2791,-0.2797,-0.2781,-0.2794,-0.2784,-0.2779,-0.2749,-0.2725,-0.2779,-0.2675,-0.2671,-0.2593,-0.2552,-0.2305,-0.2162,-0.2609,-0.2608,-0.2607,0,-0.2522,-0.2568,-0.2561,-0.2625,-0.2634,-0.2627,-0.2659,-0.2677,-0.2715,-0.2734,-0.2737,-0.275,-0.274,-0.2754,-0.2691,-0.2719,-0.2686,-0.2665,-0.266,-0.2579,-0.2577,-0.2236,-0.2128,-0.2591,-0.2592,-0.2594,-0.2595,0,-0.2413,-0.2474,-0.2466,-0.2483,-0.2567,-0.2548,-0.2572,-0.262,-0.2649,-0.2679,-0.2699,-0.2698,-0.2668,-0.2648,-0.2619,-0.2645,-0.2535,-0.2568,-0.2462,-0.2455,-0.2219,-0.2194,-0.2517,-0.2517,-0.2517,-0.2518,-0.2518,0,-0.2333,-0.2312,-0.2404,-0.2394,-0.2388,-0.2457,-0.244,-0.2489,-0.255,-0.2565,-0.264,-0.2628,-0.2638,-0.2597,-0.2585,-0.2472,-0.25,-0.2434,-0.2412,-0.2213,-0.219,-0.2556,-0.2562,-0.2513,-0.2514,-0.2515,-0.2515,0,-0.2173,-0.2235,-0.2238,-0.2315,-0.2323,-0.2299,-0.2361,-0.2373,-0.2449,-0.2466,-0.2478,-0.2535,-0.2466,-0.248,-0.2415,-0.239,-0.2329,-0.2291,-0.2045,-0.1997,-0.227,-0.2278,-0.2138,-0.2134,-0.213,-0.2128,-0.2125,0,-0.2076,-0.2067,-0.2148,-0.2136,-0.2141,-0.2142,-0.2153,-0.2279,-0.2316,-0.2388,-0.2387,-0.2356,-0.2308,-0.2195,-0.2129,-0.2059,-0.2198,-0.1819,-0.1844,-0.2236,-0.2229,-0.2243,-0.2255,-0.1516,-0.1509,-0.1503,-0.1499,0,-0.1899,-0.193,-0.1948,-0.1956,-0.1949,-0.1992,-0.2015,-0.207,-0.2203,-0.2236,-0.2214,-0.2169,-0.2041,-0.1834,-0.1773,-0.1712,-0.1818,-0.17,-0.213,-0.168,-0.1647,-0.1643,-0.1675,-0.1447,-0.1452,-0.1456,-0.1459,-0.1461,-0.1732,-0.1725,-0.1759,-0.1748,-0.1764,-0.1807,-0.1821,-0.1903,-0.1961,-0.2018,-0.2026,-0.1893,-0.1748,-0.153,-0.1418,-0.1329,-0.1485,-0.1407,-0.1425,-0.1449,-0.143,-0.1397,-0.1142,-0.1146,-0.1149,-0.1151,-0.1153,0,-0.1565,-0.1567,-0.1546,-0.157,-0.1561,-0.1611,-0.1709,-0.1727,-0.1761,-0.1827,-0.1805,-0.1465,-0.1281,-0.1176,-0.0941,-0.0895,-0.0894,-0.0853,-0.084,-0.0887,-0.0931,-0.089,-0.0456,-0.0455,-0.0454,-0.0453,0,0,-0.1468,-0.1428,-0.1449,-0.1367,-0.136,-0.1357,-0.1404,-0.1427,-0.1493,-0.1455,-0.1373,-0.1433,-0.1238,-0.0941,-0.0793,-0.0619,-0.0797,-0.0572,-0.1115,-0.1157,-0.1203,-0.1202,-0.1185,0,0,0,0,0]},{"header":{"parameterUnit":"m.s-1","parameterCategory":2,"la1":30.2991,"la2":30.254,"lo1":-89.0895,"lo2":-89.0444,"dy":0.0017,"dx":0.0017,"nx":28,"ny":28,"refTime":"2024-08-15T09:00:00:Z","depth":"2","parameterNumber":3,"parameterNumberName":"V-component_of_CURRENTS"},"data":[0,0,0,0,0,0,0,0,0,0,0,0,0,0,0,0,0,0,0,0,0,0,0,0,0,0,0,0,0,0,0,0,0,0,0,0,0,0,0,0,0,0,0,0,0,0,0,0,0,0,0,0,0,0,0,0,0,0,0.0324,0.0327,0,0.0584,0.0587,0.059,0.0691,0.069,0.0689,0.0688,0.0811,0.0815,0.0819,0,0,0,0,0,0,0,0,0,0,0,0,0,0.0147,0.0149,0.0324,0.0327,0.0329,0.0583,0.0587,0.0591,0.0692,0.069,0.0689,0.0687,0.0809,0.0814,0.082,0,0,0,0,0,0,0,0,0,0,0,0,0,0.0302,0.0149,0.0324,0.0406,0.0415,0.0582,0.0587,0.0592,0.0692,0.069,0.0688,0.0686,0.0807,0.0814,0.082,0.0899,0,0,0.0841,0.0844,0,0,0,0,0,0,0,0,0.0292,0.0309,0.0391,0.04,0.0411,0.0598,0.057,0.0686,0.0692,0.0593,0.0688,0.0685,0.0724,0.0738,0.0801,0.0905,0.091,0.0841,0.0845,0.0848,0.085,0,0,0,0,0,0,0,0.0281,0.0299,0.0433,0.0394,0.0406,0.0509,0.0527,0.0595,0.0668,0.0602,0.0608,0.0628,0.073,0.0795,0.0804,0.0912,0.0841,0.0847,0.0851,0.0854,0.0973,0.0973,0,0,0,0,0,0,0.0228,0.0288,0.0424,0.044,0.0339,0.0512,0.0533,0.0545,0.0671,0.0688,0.063,0.0632,0.0784,0.0796,0.0809,0.0794,0.0848,0.0855,0.0858,0.0974,0.0973,0.0972,0,0,0,0,0,0,0.0223,0.0237,0.0414,0.0366,0.0395,0.0514,0.0529,0.0551,0.0581,0.0692,0.0707,0.0632,0.0783,0.0799,0.0844,0.0803,0.0858,0.0864,0.0975,0.0974,0.0973,0.0836,0,0,0,0,0,0,0.0217,0.0234,0.0219,0.0362,0.0395,0.0476,0.0531,0.0557,0.0596,0.0601,0.07,0.0712,0.0783,0.0833,0.085,0.0813,0.0869,0.0976,0.0975,0.0973,0.0842,0.0831,0.0821,0,0,0,0,0,0.0209,0.0198,0.0216,0.0233,0.0372,0.0475,0.0502,0.0587,0.0596,0.0607,0.0675,0.0707,0.0834,0.0839,0.0859,0.0822,0.0977,0.0975,0.0973,0.0847,0.0833,0.0821,0,0,0,0,0,0,0.0113,0.0211,0.0234,0.025,0.0333,0.0488,0.0506,0.0562,0.0633,0.0619,0.0717,0.0736,0.0748,0.0813,0.0816,0.0852,0.0903,0.0905,0.08,0.0788,0.0778,0.0755,0.0874,0,0,0,0,0,0.0082,0.0093,0.0207,0.0214,0.0246,0.0366,0.0413,0.0468,0.0554,0.0584,0.0651,0.0715,0.0768,0.0796,0.0852,0.0891,0.0963,0.0874,0.0864,0.0854,0.0849,0.101,0.1014,0.0966,0.0966,0.0966,0,0,0.0045,0.0099,0.0104,0.0193,0.0264,0.0305,0.039,0.044,0.0465,0.0583,0.0613,0.0673,0.0767,0.0799,0.081,0.0844,0.0882,0.0852,0.0843,0.0844,0.1009,0.1014,0.1018,0.0965,0.0965,0.0965,0,0,-0.0007,0.0021,0.002,0.0077,0.0159,0.0236,0.0231,0.0353,0.0389,0.0439,0.0515,0.0572,0.0646,0.073,0.0776,0.0749,0.0814,0.0729,0.0672,0.0827,0.0833,0.0839,0.0835,0.0843,0.0736,0.0735,0.0735,0,-0.0059,-0.0041,0.0036,0.0054,0.0085,0.0186,0.0194,0.026,0.0374,0.0407,0.0409,0.0567,0.0625,0.0717,0.0681,0.0726,0.0769,0.0709,0.0815,0.0824,0.0833,0.0829,0.0839,0.0729,0.0729,0.073,0.0731,0,-0.0091,-0.0089,-0.0088,-0.0041,0.0001,0.0023,0.0112,0.0141,0.0179,0.0261,0.0332,0.0453,0.054,0.0563,0.06,0.0681,0.0666,0.0774,0.0846,0.083,0.0825,0.0838,0.0719,0.0721,0.0723,0.0725,0,0,-0.0181,-0.0123,-0.0128,-0.0128,-0.0053,-0.0019,-0.0002,0.0076,0.0097,0.0191,0.026,0.0341,0.0399,0.0455,0.0538,0.0668,0.0714,0.0711,0.0723,0.07,0.0931,0.0917,0.093,0.0848,0.0852,0.0855,0.0864,0,-0.0233,-0.0235,-0.0187,-0.0204,-0.0199,-0.0123,-0.0109,-0.0039,0.0035,0.0123,0.0268,0.0341,0.0362,0.0393,0.0518,0.0704,0.0757,0.0692,0.0957,0.0961,0.0953,0.0952,0.0889,0.0896,0.0878,0.088,0.0882,0,-0.0284,-0.0278,-0.0301,-0.0286,-0.0279,-0.0278,-0.0232,-0.02,-0.0058,-0.0005,0.0111,0.0225,0.0374,0.0423,0.0681,0.0632,0.0714,0.0859,0.0866,0.0923,0.0978,0.0933,0.0922,0.0905,0.0903,0.0902,0.09,0,-0.0375,-0.0365,-0.0393,-0.0385,-0.0344,-0.0356,-0.0339,-0.0244,-0.021,-0.0073,-0.0011,0.0177,0.0291,0.0486,0.0664,0.0682,0.0968,0.1059,0.1102,0.1095,0.1131,0.1124,0.1209,0.1209,0.1208,0.1208,0.1208,0,-0.0444,-0.0472,-0.0445,-0.0459,-0.0505,-0.0452,-0.0468,-0.0421,-0.0315,-0.0239,-0.0097,0.0021,0.0324,0.051,0.0661,0.0888,0.0943,0.1072,0.1133,0.1066,0.1054,0.1166,0.1161,0.1209,0.1209,0.1209,0.1209,0,-0.0536,-0.0515,-0.0549,-0.0539,-0.0547,-0.0583,-0.0567,-0.0553,-0.0466,-0.0344,-0.0309,-0.0073,0.0143,0.0381,0.0715,0.0879,0.1113,0.1146,0.0952,0.0993,0.1114,0.1101,0.1239,0.124,0.124,0.124,0.1241,0,-0.0582,-0.0607,-0.0623,-0.0647,-0.0651,-0.0688,-0.0702,-0.0647,-0.0595,-0.0388,-0.0307,-0.0106,0.0071,0.0482,0.0788,0.1029,0.1027,0.11,0.1171,0.1089,0.1135,0.1121,0.1109,0.1101,0.11,0.1099,0.1099,0,-0.0664,-0.0668,-0.0684,-0.0736,-0.077,-0.0799,-0.0792,-0.0766,-0.0644,-0.0519,-0.0314,-0.016,0.0195,0.0505,0.0789,0.0934,0.1079,0.1094,0.1141,0.1111,0.0966,0.1007,0.0999,0.1092,0.1093,0.1093,0.1093,0.1094,-0.0722,-0.0752,-0.0765,-0.0817,-0.0853,-0.0867,-0.0879,-0.0796,-0.0702,-0.0454,-0.0314,-0.0022,0.0259,0.0721,0.0841,0.0974,0.1073,0.1135,0.1136,0.1138,0.1129,0.0996,0.1114,0.1115,0.1115,0.1116,0.1116,0,-0.0778,-0.0794,-0.0841,-0.0887,-0.0932,-0.0934,-0.0901,-0.0844,-0.0698,-0.0423,-0.0216,0.0121,0.0423,0.0616,0.0871,0.1053,0.1027,0.0987,0.094,0.0949,0.0957,0.0937,0.0871,0.087,0.0869,0.0868,0,0,-0.0801,-0.0845,-0.086,-0.0936,-0.0969,-0.0998,-0.0974,-0.0831,-0.063,-0.034,-0.0083,0.0263,0.0543,0.0665,0.0787,0.0825,0.083,0.0788,0.0986,0.0925,0.0929,0.106,0.1043,0,0,0,0,0]}],[{"header":{"parameterUnit":"m.s-1","parameterCategory":2,"la1":30.2991,"la2":30.254,"lo1":-89.0895,"lo2":-89.0444,"dy":0.0017,"dx":0.0017,"nx":28,"ny":28,"refTime":"2024-08-15T09:00:00:Z","depth":"4","parameterNumber":2,"parameterNumberName":"U-component_of_CURRENTS"},"data":[0,0,0,0,0,0,0,0,0,0,0,0,0,0,0,0,0,0,0,0,0,0,0,0,0,0,0,0,0,0,0,0,0,0,0,0,0,0,0,0,0,0,0,0,0,0,0,0,0,0,0,0,0,0,0,0,0,0,-0.1143,-0.1144,0,-0.1231,-0.1232,-0.1234,-0.1274,-0.1274,-0.1274,-0.1274,-0.1388,-0.1391,-0.1394,0,0,0,0,0,0,0,0,0,0,0,0,0,-0.1054,-0.1055,-0.1143,-0.1144,-0.1145,-0.1231,-0.1233,-0.1234,-0.1274,-0.1274,-0.1274,-0.1274,-0.1387,-0.139,-0.1394,0,0,0,0,0,0,0,0,0,0,0,0,0,-0.1113,-0.1055,-0.1143,-0.1175,-0.1178,-0.1231,-0.1233,-0.1234,-0.1274,-0.1274,-0.1274,-0.1274,-0.1385,-0.139,-0.1395,-0.1429,0,0,-0.1409,-0.1411,0,0,0,0,0,0,0,0,-0.111,-0.1116,-0.1169,-0.1173,-0.1177,-0.1241,-0.1243,-0.13,-0.1274,-0.1239,-0.1274,-0.1273,-0.134,-0.1349,-0.1367,-0.1435,-0.144,-0.141,-0.1413,-0.1415,-0.1416,0,0,0,0,0,0,0,-0.1105,-0.1113,-0.1179,-0.117,-0.1175,-0.12,-0.1208,-0.1254,-0.1291,-0.1242,-0.1245,-0.1253,-0.1343,-0.1362,-0.137,-0.1441,-0.141,-0.1414,-0.1417,-0.1419,-0.1625,-0.1628,0,0,0,0,0,0,-0.1091,-0.1109,-0.1176,-0.1182,-0.1141,-0.1201,-0.121,-0.1221,-0.129,-0.13,-0.1253,-0.1255,-0.1354,-0.1364,-0.1374,-0.1447,-0.1415,-0.1419,-0.1422,-0.1622,-0.1626,-0.1628,0,0,0,0,0,0,-0.1088,-0.1096,-0.1173,-0.1146,-0.1158,-0.1203,-0.1215,-0.1223,-0.126,-0.1298,-0.1309,-0.1284,-0.1355,-0.1368,-0.1449,-0.1451,-0.1421,-0.1426,-0.1619,-0.1623,-0.1627,-0.1576,0,0,0,0,0,0,-0.1086,-0.1095,-0.1109,-0.1145,-0.1159,-0.12,-0.1216,-0.1225,-0.1264,-0.1267,-0.1328,-0.1337,-0.1355,-0.1442,-0.1454,-0.1457,-0.1429,-0.1616,-0.1621,-0.1626,-0.1574,-0.1578,-0.1581,0,0,0,0,0,-0.1082,-0.1092,-0.1109,-0.1118,-0.1173,-0.12,-0.1209,-0.1241,-0.1266,-0.1276,-0.1343,-0.1336,-0.1481,-0.1448,-0.1462,-0.1466,-0.1614,-0.162,-0.1625,-0.1573,-0.1577,-0.158,0,0,0,0,0,0,-0.1071,-0.1098,-0.1118,-0.114,-0.1168,-0.1206,-0.1231,-0.1255,-0.1316,-0.1331,-0.1374,-0.1388,-0.1473,-0.1489,-0.1452,-0.1548,-0.1545,-0.1554,-0.1501,-0.1505,-0.1508,-0.1557,-0.1433,0,0,0,0,0,-0.1073,-0.1085,-0.1118,-0.114,-0.1158,-0.1203,-0.1225,-0.1242,-0.1294,-0.132,-0.1377,-0.1441,-0.1505,-0.152,-0.1592,-0.1628,-0.1634,-0.1645,-0.1648,-0.165,-0.1705,-0.171,-0.1717,-0.1648,-0.1648,-0.1648,0,0,-0.108,-0.1095,-0.1107,-0.1139,-0.1174,-0.1199,-0.1217,-0.1249,-0.1285,-0.1325,-0.1416,-0.1474,-0.1533,-0.1592,-0.1625,-0.1596,-0.1661,-0.1657,-0.1657,-0.1714,-0.1717,-0.1723,-0.1728,-0.1652,-0.1651,-0.165,0,0,-0.1091,-0.1115,-0.113,-0.1148,-0.1184,-0.1207,-0.122,-0.1275,-0.1317,-0.1405,-0.1448,-0.1523,-0.1615,-0.1647,-0.1675,-0.1746,-0.1705,-0.1746,-0.176,-0.1761,-0.1766,-0.177,-0.1716,-0.1716,-0.1709,-0.1709,-0.1709,0,-0.1091,-0.1115,-0.114,-0.1157,-0.1175,-0.1214,-0.1236,-0.1283,-0.1363,-0.1399,-0.1439,-0.1612,-0.1655,-0.1713,-0.1743,-0.1751,-0.1723,-0.172,-0.1759,-0.1764,-0.177,-0.1714,-0.1715,-0.1707,-0.1707,-0.1708,-0.1708,0,-0.1116,-0.1131,-0.1144,-0.1175,-0.1204,-0.1219,-0.1277,-0.1321,-0.1392,-0.144,-0.1561,-0.1652,-0.1749,-0.1751,-0.1779,-0.1825,-0.178,-0.1778,-0.1731,-0.1772,-0.1712,-0.1713,-0.1705,-0.1705,-0.1706,-0.1706,0,0,-0.1096,-0.1144,-0.1149,-0.1166,-0.1204,-0.1232,-0.1288,-0.1342,-0.1397,-0.15,-0.157,-0.1715,-0.1775,-0.1821,-0.1843,-0.1844,-0.1836,-0.1823,-0.1824,-0.1738,-0.1785,-0.1653,-0.1641,-0.1811,-0.1813,-0.1814,-0.1699,0,-0.1096,-0.1123,-0.1154,-0.1191,-0.1206,-0.1247,-0.1305,-0.1362,-0.1444,-0.152,-0.1608,-0.1713,-0.1789,-0.1834,-0.1863,-0.1873,-0.1852,-0.1866,-0.1792,-0.1791,-0.1641,-0.1645,-0.1821,-0.17,-0.1701,-0.1701,-0.1701,0,-0.1095,-0.111,-0.1142,-0.1192,-0.1211,-0.1251,-0.1335,-0.1401,-0.1486,-0.1541,-0.1645,-0.1726,-0.1806,-0.1848,-0.1903,-0.1898,-0.187,-0.1852,-0.1846,-0.1764,-0.1665,-0.1676,-0.1704,-0.1704,-0.1704,-0.1704,-0.1703,0,-0.1054,-0.1098,-0.1123,-0.1135,-0.1205,-0.1247,-0.1313,-0.1412,-0.1435,-0.1564,-0.1581,-0.1719,-0.1776,-0.1814,-0.1855,-0.1865,-0.1851,-0.1841,-0.1684,-0.167,-0.1842,-0.1839,-0.1857,-0.1857,-0.1857,-0.1858,-0.1858,0,-0.1011,-0.1033,-0.1115,-0.1121,-0.1169,-0.1256,-0.1319,-0.1395,-0.1446,-0.1469,-0.1618,-0.1641,-0.1776,-0.1793,-0.1819,-0.1762,-0.1828,-0.1709,-0.165,-0.1814,-0.1811,-0.1837,-0.1836,-0.1853,-0.1854,-0.1855,-0.1856,0,-0.0956,-0.0999,-0.1027,-0.1112,-0.1143,-0.12,-0.1259,-0.128,-0.1383,-0.1404,-0.1429,-0.1539,-0.1594,-0.1666,-0.1693,-0.1685,-0.1652,-0.1596,-0.1735,-0.1682,-0.1466,-0.1465,-0.141,-0.1405,-0.14,-0.1397,-0.1394,0,-0.0923,-0.0934,-0.1008,-0.1013,-0.1053,-0.1124,-0.1137,-0.1224,-0.1233,-0.1337,-0.1317,-0.1384,-0.1465,-0.1389,-0.1494,-0.1482,-0.148,-0.1445,-0.1525,-0.1482,-0.1429,-0.1435,-0.144,-0.1387,-0.1385,-0.1384,-0.1383,0,-0.0856,-0.0897,-0.092,-0.0927,-0.0946,-0.0952,-0.1008,-0.0974,-0.1088,-0.1151,-0.1171,-0.1209,-0.1232,-0.1293,-0.1281,-0.1288,-0.1481,-0.14,-0.141,-0.1484,-0.1452,-0.1406,-0.1416,-0.1368,-0.137,-0.1371,-0.1372,0,-0.0807,-0.0809,-0.0833,-0.0837,-0.0833,-0.0808,-0.0851,-0.086,-0.0867,-0.1001,-0.0994,-0.1104,-0.1196,-0.1183,-0.1182,-0.1177,-0.1179,-0.1179,-0.1201,-0.1219,-0.1223,-0.1159,-0.0939,0,0,0,0,0,-0.0743,-0.0737,-0.073,-0.072,-0.0701,-0.071,-0.0754,-0.0798,-0.0901,-0.0868,-0.0926,-0.0956,-0.0985,-0.1031,-0.0988,-0.1096,-0.1181,-0.1043,-0.1192,-0.1283,-0.13,-0.133,0,0,0,0,0,0,-0.0702,-0.07,-0.0702,-0.0609,-0.0576,-0.0553,-0.0584,-0.066,-0.0663,-0.0781,-0.079,-0.0884,-0.0911,-0.0977,-0.0959,-0.0972,-0.1046,-0.1095,-0.1092,-0.1273,-0.1289,-0.1303,-0.134,0,0,0,0,0]},{"header":{"parameterUnit":"m.s-1","parameterCategory":2,"la1":30.2991,"la2":30.254,"lo1":-89.0895,"lo2":-89.0444,"dy":0.0017,"dx":0.0017,"nx":28,"ny":28,"refTime":"2024-08-15T09:00:00:Z","depth":"4","parameterNumber":3,"parameterNumberName":"V-component_of_CURRENTS"},"data":[0,0,0,0,0,0,0,0,0,0,0,0,0,0,0,0,0,0,0,0,0,0,0,0,0,0,0,0,0,0,0,0,0,0,0,0,0,0,0,0,0,0,0,0,0,0,0,0,0,0,0,0,0,0,0,0,0,0,-0.0232,-0.0233,0,-0.0265,-0.0265,-0.0265,-0.0225,-0.0224,-0.0223,-0.0221,-0.0162,-0.0161,-0.0161,0,0,0,0,0,0,0,0,0,0,0,0,0,-0.0185,-0.0186,-0.0232,-0.0233,-0.0233,-0.0265,-0.0265,-0.0266,-0.0225,-0.0224,-0.0222,-0.0221,-0.0162,-0.0161,-0.0161,0,0,0,0,0,0,0,0,0,0,0,0,0,-0.0209,-0.0186,-0.0232,-0.0218,-0.0218,-0.0265,-0.0265,-0.0266,-0.0226,-0.0224,-0.0222,-0.022,-0.0162,-0.0161,-0.0161,-0.0198,0,0,-0.0159,-0.0159,0,0,0,0,0,0,0,0,-0.0208,-0.0211,-0.022,-0.022,-0.0219,-0.024,-0.0227,-0.0239,-0.0226,-0.0221,-0.0221,-0.0219,-0.0182,-0.018,-0.0189,-0.0195,-0.0192,-0.0159,-0.0159,-0.0159,-0.0159,0,0,0,0,0,0,0,-0.0206,-0.0209,-0.0243,-0.0221,-0.022,-0.0228,-0.0229,-0.023,-0.0209,-0.0221,-0.0219,-0.0226,-0.0181,-0.019,-0.0187,-0.0191,-0.0159,-0.0159,-0.0159,-0.0158,-0.0184,-0.0185,0,0,0,0,0,0,-0.0205,-0.0208,-0.0242,-0.0245,-0.021,-0.023,-0.0231,-0.0234,-0.0211,-0.0207,-0.0228,-0.0224,-0.0192,-0.0188,-0.0185,-0.0201,-0.0159,-0.0158,-0.0158,-0.0183,-0.0185,-0.0186,0,0,0,0,0,0,-0.0204,-0.0208,-0.0241,-0.0228,-0.0233,-0.0233,-0.0237,-0.0236,-0.0239,-0.0217,-0.021,-0.0231,-0.019,-0.0186,-0.0171,-0.0199,-0.0158,-0.0158,-0.0182,-0.0184,-0.0185,-0.025,0,0,0,0,0,0,-0.0203,-0.0207,-0.0212,-0.0228,-0.0234,-0.0266,-0.0239,-0.0238,-0.0247,-0.0243,-0.0219,-0.0211,-0.0188,-0.0172,-0.017,-0.0198,-0.0157,-0.0181,-0.0183,-0.0185,-0.0246,-0.0253,-0.0259,0,0,0,0,0,-0.0201,-0.0222,-0.0212,-0.0216,-0.0239,-0.0267,-0.0271,-0.0263,-0.025,-0.0257,-0.023,-0.0212,-0.0183,-0.0172,-0.017,-0.0198,-0.018,-0.0182,-0.0185,-0.0244,-0.0252,-0.0259,0,0,0,0,0,0,-0.0203,-0.0221,-0.0209,-0.0233,-0.0244,-0.026,-0.0276,-0.027,-0.0261,-0.0254,-0.0221,-0.0212,-0.0207,-0.0197,-0.0186,-0.0211,-0.0181,-0.0183,-0.0227,-0.0235,-0.0241,-0.0213,-0.0157,0,0,0,0,0,-0.0207,-0.0226,-0.0237,-0.0256,-0.0264,-0.027,-0.0282,-0.0279,-0.0275,-0.027,-0.0249,-0.0232,-0.0222,-0.022,-0.0204,-0.0226,-0.0157,-0.0243,-0.025,-0.0256,-0.0232,-0.0166,-0.0163,-0.0193,-0.0193,-0.0193,0,0,-0.0213,-0.0227,-0.0236,-0.0258,-0.0268,-0.029,-0.0271,-0.0297,-0.0307,-0.0266,-0.0268,-0.0248,-0.0228,-0.0238,-0.0238,-0.0231,-0.0208,-0.0258,-0.0263,-0.0236,-0.0168,-0.0165,-0.0162,-0.0195,-0.0194,-0.0194,0,0,-0.0243,-0.0247,-0.0272,-0.0286,-0.0308,-0.0314,-0.0321,-0.0335,-0.0329,-0.0338,-0.0304,-0.0293,-0.0291,-0.0276,-0.0271,-0.0307,-0.0235,-0.0318,-0.034,-0.0279,-0.0274,-0.027,-0.0162,-0.0147,-0.0334,-0.0334,-0.0334,0,-0.0248,-0.0277,-0.0284,-0.0311,-0.0331,-0.0325,-0.0355,-0.0358,-0.036,-0.0358,-0.0342,-0.032,-0.0307,-0.0307,-0.0316,-0.0321,-0.0251,-0.0315,-0.0284,-0.0279,-0.0273,-0.0163,-0.0146,-0.0337,-0.0337,-0.0336,-0.0336,0,-0.0288,-0.0314,-0.0336,-0.0362,-0.0384,-0.0414,-0.0419,-0.0431,-0.0426,-0.0416,-0.0406,-0.0378,-0.0362,-0.0373,-0.0354,-0.0329,-0.0277,-0.0289,-0.026,-0.0274,-0.0157,-0.0138,-0.0342,-0.0341,-0.034,-0.0339,0,0,-0.0293,-0.0351,-0.0358,-0.038,-0.0415,-0.0437,-0.0466,-0.0482,-0.0493,-0.0474,-0.0476,-0.0454,-0.0422,-0.0411,-0.0392,-0.0344,-0.0249,-0.0302,-0.0297,-0.0184,-0.0061,-0.0055,-0.0032,-0.0253,-0.0251,-0.0249,0.0012,0,-0.032,-0.0382,-0.0405,-0.0459,-0.0491,-0.0507,-0.0532,-0.0544,-0.0543,-0.0539,-0.0498,-0.0483,-0.0444,-0.044,-0.0383,-0.0283,-0.0204,-0.0315,-0.0072,-0.0063,-0.0049,-0.0014,-0.0242,0.0026,0.003,0.0034,0.0036,0,-0.0349,-0.039,-0.045,-0.0511,-0.0526,-0.0556,-0.06,-0.0617,-0.0611,-0.0614,-0.0583,-0.0534,-0.0456,-0.0434,-0.0225,-0.0292,-0.0169,-0.0082,-0.0071,-0.0024,-0.0023,0.0038,0.0071,0.0068,0.0066,0.0063,0.0061,0,-0.0351,-0.0422,-0.0471,-0.0491,-0.0554,-0.0587,-0.0617,-0.0637,-0.065,-0.0647,-0.0642,-0.0548,-0.0488,-0.0333,-0.0139,-0.0174,0.0111,0.0074,0.0214,0.0218,0.0164,0.0156,0.0242,0.0242,0.0242,0.0241,0.024,0,-0.0374,-0.0414,-0.0476,-0.0505,-0.0565,-0.06,-0.0651,-0.0682,-0.0697,-0.069,-0.0661,-0.0612,-0.0456,-0.0282,-0.0119,0.013,0.0141,0.0249,0.0285,0.0131,0.0117,0.0179,0.0169,0.0251,0.0248,0.0247,0.0245,0,-0.0375,-0.0412,-0.0474,-0.0547,-0.0571,-0.0612,-0.0681,-0.0703,-0.0725,-0.0715,-0.0706,-0.0617,-0.0388,-0.0195,0.0073,0.0165,0.0381,0.0467,0.0345,0.0364,0.045,0.0432,0.0649,0.0651,0.0653,0.0655,0.0656,0,-0.0383,-0.0414,-0.0499,-0.0536,-0.0575,-0.0637,-0.0674,-0.0721,-0.0732,-0.0692,-0.0666,-0.0481,-0.0386,0.0029,0.0189,0.0512,0.053,0.0627,0.0493,0.0479,0.0492,0.0471,0.0451,0.0659,0.066,0.066,0.0661,0,-0.0401,-0.0428,-0.0477,-0.0549,-0.06,-0.0656,-0.0703,-0.0709,-0.0721,-0.0729,-0.0585,-0.0418,-0.0166,0.0078,0.0327,0.054,0.0539,0.0648,0.0643,0.0518,0.0494,0.05,0.0479,0.0668,0.0667,0.0666,0.0666,0,-0.041,-0.0446,-0.0502,-0.056,-0.0619,-0.0653,-0.0687,-0.0661,-0.0661,-0.0604,-0.0534,-0.0314,-0.019,0.01,0.0334,0.0535,0.0553,0.0553,0.0553,0.0547,0.04,0.0347,0.0538,0,0,0,0,0,-0.0418,-0.0451,-0.0509,-0.0576,-0.0625,-0.0657,-0.0691,-0.0707,-0.0695,-0.0575,-0.0557,-0.0315,-0.0004,0.0118,0.0335,0.0342,0.0563,0.0589,0.0558,0.0707,0.0699,0.0537,0,0,0,0,0,0,-0.0426,-0.0477,-0.0504,-0.0561,-0.06,-0.0654,-0.0672,-0.0669,-0.0598,-0.0555,-0.0362,-0.03,0.0031,-0.0096,0.0336,0.0388,0.0382,0.0736,0.0739,0.0711,0.0704,0.0698,0.0529,0,0,0,0,0]}]]